.
WxDataArchive / Data Records for 2008-12-18
2008-12-17 December 2008 2008-12-19

Data Records for Thursday, 18 December 2008

Time	Temp	Chill	HIndex	Humid	Dewpt	 Wind 	HiWind	WindDir	Rain 	Barom 
-----	----	-----	------	-----	-----	------	------	-------	-----	----- 
00:00	18.1	18.1	18.1	86	14.6	0	1	248	0.00	30.313 
00:05	18.1	18.1	18.1	86	14.6	0	2	248	0.00	30.315 
00:10	18.0	18.0	18.0	86	14.5	0	1	248	0.00	30.311 
00:15	18.0	18.0	18.0	86	14.5	0	1	248	0.00	30.307 
00:20	18.0	18.0	18.0	86	14.5	0	0	---	0.00	30.309 
00:25	18.0	18.0	18.0	86	14.5	0	0	---	0.00	30.309 
00:30	18.0	18.0	18.0	86	14.5	0	0	---	0.00	30.309 
00:35	18.1	18.1	18.1	87	14.9	0	1	248	0.00	30.307 
00:40	18.0	18.0	18.0	87	14.8	0	1	248	0.00	30.308 
00:45	18.0	18.0	18.0	87	14.8	0	1	248	0.00	30.302 
00:50	18.0	18.0	18.0	87	14.8	0	1	248	0.00	30.305 
00:55	18.0	18.0	18.0	87	14.8	0	0	---	0.00	30.311 
01:00	18.0	18.0	18.0	87	14.8	0	0	---	0.00	30.310 
01:05	18.0	18.0	18.0	87	14.8	0	0	---	0.00	30.312 
01:10	18.0	18.0	18.0	87	14.8	0	1	248	0.00	30.312 
01:15	18.0	18.0	18.0	87	14.8	0	2	248	0.00	30.314 
01:20	18.0	18.0	18.0	87	14.8	0	1	248	0.00	30.313 
01:25	18.0	18.0	18.0	87	14.8	0	1	248	0.00	30.315 
01:30	18.0	18.0	18.0	87	14.8	0	1	248	0.00	30.314 
01:35	17.8	17.8	17.8	87	14.6	1	2	248	0.00	30.321 
01:40	17.8	17.8	17.8	87	14.6	0	2	248	0.00	30.328 
01:45	17.8	17.8	17.8	87	14.6	0	1	248	0.00	30.328 
01:50	17.8	17.8	17.8	87	14.6	0	1	248	0.00	30.326 
01:55	17.8	17.8	17.8	87	14.6	0	1	248	0.00	30.328 
02:00	17.8	17.8	17.8	87	14.6	0	1	248	0.00	30.330 
02:05	17.8	17.8	17.8	87	14.6	0	1	248	0.00	30.332 
02:10	17.7	17.7	17.7	87	14.5	0	2	225	0.00	30.331 
02:15	17.5	17.5	17.5	87	14.3	0	2	225	0.00	30.330 
02:20	17.5	17.5	17.5	87	14.3	0	1	225	0.00	30.325 
02:25	17.5	17.5	17.5	87	14.3	0	2	225	0.00	30.326 
02:30	17.3	17.3	17.3	87	14.1	0	1	225	0.00	30.332 
02:35	17.3	17.3	17.3	87	14.1	0	1	225	0.00	30.337 
02:40	17.2	17.2	17.2	87	14.0	0	2	225	0.00	30.339 
02:45	17.2	17.2	17.2	87	14.0	0	1	225	0.00	30.344 
02:50	17.0	17.0	17.0	87	13.8	0	1	225	0.00	30.344 
02:55	17.0	17.0	17.0	87	13.8	0	1	225	0.00	30.338 
03:00	17.0	17.0	17.0	87	13.8	0	1	225	0.00	30.343 
03:05	17.0	17.0	17.0	87	13.8	0	1	225	0.00	30.346 
03:10	17.0	17.0	17.0	87	13.8	0	1	225	0.00	30.346 
03:15	17.0	17.0	17.0	87	13.8	0	1	225	0.00	30.347 
03:20	17.0	17.0	17.0	87	13.8	0	1	225	0.00	30.347 
03:25	17.0	17.0	17.0	88	14.1	0	1	225	0.00	30.347 
03:30	17.0	17.0	17.0	88	14.1	0	0	---	0.00	30.352 
03:35	17.0	17.0	17.0	88	14.1	0	0	---	0.00	30.352 
03:40	17.0	17.0	17.0	88	14.1	0	0	---	0.00	30.352 
03:45	17.0	17.0	17.0	88	14.1	0	1	225	0.00	30.349 
03:50	17.0	17.0	17.0	88	14.1	0	0	---	0.00	30.349 
03:55	17.2	17.2	17.2	88	14.3	0	1	225	0.00	30.349 
04:00	17.2	17.2	17.2	88	14.3	0	1	225	0.00	30.360 
04:05	17.2	17.2	17.2	88	14.3	0	1	225	0.00	30.360 
04:10	17.2	17.2	17.2	88	14.3	0	1	225	0.00	30.360 
04:15	17.2	17.2	17.2	88	14.3	0	1	225	0.00	30.363 
04:20	17.2	17.2	17.2	87	14.0	0	0	---	0.00	30.363 
04:25	17.2	17.2	17.2	87	14.0	0	0	---	0.00	30.363 
04:30	17.2	17.2	17.2	87	14.0	0	0	---	0.00	30.347 
04:35	17.2	17.2	17.2	87	14.0	0	0	---	0.00	30.347 
04:40	17.2	17.2	17.2	87	14.0	0	1	225	0.00	30.347 
04:45	17.2	17.2	17.2	87	14.0	0	1	225	0.00	30.344 
04:50	17.3	17.3	17.3	87	14.1	0	0	---	0.00	30.344 
04:55	17.3	17.3	17.3	87	14.1	0	1	225	0.00	30.344 
05:00	17.3	17.3	17.3	87	14.1	0	1	225	0.00	30.327 
05:05	17.3	17.3	17.3	87	14.1	0	2	225	0.00	30.327 
05:10	17.3	17.3	17.3	87	14.1	0	1	225	0.00	30.327 
05:15	17.3	17.3	17.3	87	14.1	0	0	---	0.00	30.315 
05:20	17.3	17.3	17.3	87	14.1	0	1	225	0.00	30.315 
05:25	17.3	17.3	17.3	87	14.1	0	0	---	0.00	30.315 
05:30	17.3	17.3	17.3	87	14.1	0	0	---	0.00	30.319 
05:35	17.2	17.2	17.2	87	14.0	0	1	225	0.00	30.319 
05:40	17.3	17.3	17.3	87	14.1	0	1	225	0.00	30.319 
05:45	17.3	17.3	17.3	87	14.1	0	0	---	0.00	30.317 
05:50	17.3	17.3	17.3	87	14.1	0	0	---	0.00	30.317 
05:55	17.3	17.3	17.3	87	14.1	0	1	225	0.00	30.317 
06:00	17.3	17.3	17.3	87	14.1	0	1	225	0.00	30.311 
06:05	17.3	17.3	17.3	87	14.1	0	1	225	0.00	30.311 
06:10	17.3	17.3	17.3	87	14.1	0	0	---	0.00	30.311 
06:15	17.3	17.3	17.3	87	14.1	0	1	225	0.00	30.308 
06:20	17.3	17.3	17.3	87	14.1	0	1	225	0.00	30.308 
06:25	17.3	17.3	17.3	88	14.4	0	1	225	0.00	30.308 
06:30	17.3	17.3	17.3	88	14.4	0	1	225	0.00	30.309 
06:35	17.3	17.3	17.3	88	14.4	0	1	225	0.00	30.309 
06:40	17.3	17.3	17.3	88	14.4	0	1	225	0.00	30.309 
06:45	17.3	17.3	17.3	88	14.4	0	1	225	0.00	30.299 
06:50	17.3	17.3	17.3	88	14.4	0	1	225	0.00	30.299 
06:55	17.5	17.5	17.5	88	14.6	0	1	225	0.00	30.299 
07:00	17.5	17.5	17.5	88	14.6	0	1	225	0.00	30.304 
07:05	17.5	17.5	17.5	88	14.6	0	1	225	0.00	30.304 
07:10	17.5	17.5	17.5	88	14.6	0	1	225	0.00	30.304 
07:15	17.5	17.5	17.5	88	14.6	0	1	225	0.00	30.304 
07:20	17.5	17.5	17.5	88	14.6	0	2	202	0.00	30.304 
07:25	17.5	17.5	17.5	88	14.6	0	1	202	0.00	30.304 
07:30	17.5	17.5	17.5	88	14.6	0	2	202	0.00	30.314 
07:35	17.7	17.7	17.7	88	14.8	0	1	202	0.00	30.314 
07:40	17.7	17.7	17.7	88	14.8	0	1	202	0.00	30.314 
07:45	17.5	17.5	17.5	88	14.6	0	1	202	0.00	30.306 
07:50	17.5	17.5	17.5	88	14.6	0	1	202	0.00	30.306 
07:55	17.5	17.5	17.5	88	14.6	0	1	202	0.00	30.306 
08:00	17.3	17.3	17.3	88	14.4	0	1	202	0.00	30.307 
08:05	17.2	17.2	17.2	88	14.3	0	0	---	0.00	30.307 
08:10	17.2	17.2	17.2	88	14.3	0	0	---	0.00	30.307 
08:15	17.0	17.0	17.0	88	14.1	0	0	---	0.00	30.312 
08:20	17.0	17.0	17.0	88	14.1	0	0	---	0.00	30.312 
08:25	17.0	17.0	17.0	88	14.1	0	0	---	0.00	30.312 
08:30	16.9	16.9	16.9	88	14.0	0	0	---	0.00	30.307 
08:35	16.9	16.9	16.9	88	14.0	0	0	---	0.00	30.307 
08:40	16.9	16.9	16.9	88	14.0	0	0	---	0.00	30.307 
08:45	16.9	16.9	16.9	88	14.0	0	0	---	0.00	30.310 
08:50	16.9	16.9	16.9	88	14.0	0	0	---	0.00	30.310 
08:55	17.0	17.0	17.0	88	14.1	0	0	---	0.00	30.310 
09:00	17.2	17.2	17.2	88	14.3	0	0	---	0.00	30.320 
09:05	17.3	17.3	17.3	88	14.4	0	0	---	0.00	30.320 
09:10	17.5	17.5	17.5	88	14.6	0	0	---	0.00	30.320 
09:15	17.7	17.7	17.7	88	14.8	0	0	---	0.00	30.324 
09:20	18.0	18.0	18.0	88	15.1	0	1	202	0.00	30.324 
09:25	18.1	18.1	18.1	88	15.2	0	1	202	0.00	30.324 
09:30	18.1	18.1	18.1	88	15.2	0	1	202	0.00	30.330 
09:35	18.3	18.3	18.3	88	15.4	0	0	---	0.00	30.330 
09:40	18.4	18.4	18.4	88	15.5	0	0	---	0.00	30.330 
09:45	18.8	18.8	18.8	87	15.6	0	1	202	0.00	30.334 
09:50	18.8	18.8	18.8	87	15.6	0	1	202	0.00	30.334 
09:55	18.9	18.9	18.9	87	15.7	0	1	202	0.00	30.334 
10:00	19.1	19.1	19.1	86	15.6	0	0	---	0.00	30.343 
10:05	19.2	19.2	19.2	86	15.7	0	0	---	0.00	30.343 
10:10	19.4	19.4	19.4	86	15.9	0	1	202	0.00	30.343 
10:15	19.5	19.5	19.5	86	16.0	0	0	---	0.00	30.349 
10:20	19.5	19.5	19.5	85	15.7	0	1	202	0.00	30.349 
10:25	19.7	19.7	19.7	85	15.9	0	0	---	0.00	30.349 
10:30	19.7	19.7	19.7	85	15.9	0	1	202	0.00	30.353 
10:35	19.7	19.7	19.7	84	15.7	0	2	202	0.00	30.353 
10:40	19.7	19.7	19.7	84	15.7	0	0	---	0.00	30.353 
10:45	19.9	19.9	19.9	84	15.9	0	2	202	0.00	30.348 
10:50	20.0	20.0	20.0	84	16.0	0	2	158	0.00	30.348 
10:55	20.2	20.2	20.2	84	16.2	0	2	158	0.00	30.348 
11:00	20.3	20.3	20.3	84	16.3	0	1	158	0.00	30.341 
11:05	20.5	20.5	20.5	84	16.4	0	2	112	0.00	30.341 
11:10	20.5	20.5	20.5	83	16.2	0	2	112	0.00	30.341 
11:15	20.5	20.5	20.5	83	16.2	0	1	112	0.00	30.344 
11:20	20.8	20.8	20.8	83	16.5	0	0	---	0.00	30.344 
11:25	21.0	21.0	21.0	82	16.4	0	1	112	0.00	30.344 
11:30	21.1	21.1	21.1	82	16.5	0	1	112	0.00	30.347 
11:35	21.1	21.1	21.1	81	16.2	0	1	112	0.00	30.347 
11:40	21.0	21.0	21.0	81	16.1	0	1	112	0.00	30.347 
11:45	21.0	21.0	21.0	81	16.1	0	1	112	0.00	30.336 
11:50	21.0	21.0	21.0	81	16.1	0	1	112	0.00	30.336 
11:55	21.0	21.0	21.0	81	16.1	0	1	112	0.00	30.336 
12:00	21.1	21.1	21.1	81	16.2	0	1	112	0.00	30.332 
12:05	21.4	21.4	21.4	81	16.5	0	0	---	0.00	30.332 
12:10	21.9	21.9	21.9	80	16.7	0	1	112	0.00	30.332 
12:15	22.4	22.4	22.4	80	17.2	0	1	112	0.00	30.323 
12:20	22.2	22.2	22.2	78	16.4	0	1	112	0.00	30.323 
12:25	22.4	22.4	22.4	78	16.6	0	2	248	0.00	30.323 
12:30	22.5	22.5	22.5	78	16.7	0	2	248	0.00	30.320 
12:35	22.7	22.7	22.7	77	16.6	0	1	248	0.00	30.320 
12:40	22.9	22.9	22.9	77	16.8	0	2	248	0.00	30.320 
12:45	23.0	23.0	23.0	77	16.9	0	1	248	0.00	30.318 
12:50	23.2	23.2	23.2	77	17.1	0	2	248	0.00	30.318 
12:55	23.5	23.5	23.5	77	17.4	0	3	248	0.00	30.318 
13:00	23.6	23.6	23.6	75	16.9	0	3	248	0.00	30.310 
13:05	23.6	23.6	23.6	75	16.9	0	2	248	0.00	30.310 
13:10	23.9	23.9	23.9	75	17.2	0	1	248	0.00	30.310 
13:15	24.1	24.1	24.1	74	17.0	0	1	248	0.00	30.302 
13:20	24.1	24.1	24.1	74	17.0	0	1	248	0.00	30.302 
13:25	24.1	24.1	24.1	73	16.7	0	2	248	0.00	30.302 
13:30	24.1	24.1	24.1	74	17.0	0	2	248	0.00	30.297 
13:35	23.8	23.8	23.8	73	16.4	0	2	248	0.00	30.297 
13:40	23.6	23.6	23.6	73	16.2	0	1	248	0.00	30.297 
13:45	23.9	23.9	23.9	73	16.5	0	1	248	0.00	30.289 
13:50	23.9	23.9	23.9	74	16.8	0	2	248	0.00	30.289 
13:55	23.8	23.8	23.8	75	17.1	0	1	248	0.00	30.289 
14:00	23.8	23.8	23.8	75	17.1	0	2	248	0.00	30.282 
14:05	23.8	23.8	23.8	75	17.1	0	1	248	0.00	30.282 
14:10	23.6	23.6	23.6	74	16.6	0	1	248	0.00	30.282 
14:15	23.6	23.6	23.6	74	16.6	0	1	248	0.00	30.283 
14:20	23.5	23.5	23.5	74	16.5	0	1	248	0.00	30.283 
14:25	23.6	23.6	23.6	74	16.6	0	1	248	0.00	30.283 
14:30	23.3	23.3	23.3	75	16.6	0	2	248	0.00	30.283 
14:35	23.2	23.2	23.2	76	16.8	0	2	248	0.00	30.283 
14:40	22.9	22.9	22.9	77	16.8	1	2	225	0.00	30.283 
14:45	22.9	22.9	22.9	77	16.8	0	2	225	0.00	30.282 
14:50	22.9	22.9	22.9	77	16.8	1	2	135	0.00	30.282 
14:55	22.9	22.9	22.9	77	16.8	1	3	135	0.00	30.282 
15:00	22.9	22.9	22.9	77	16.8	0	2	135	0.00	30.282 
15:05	23.0	23.0	23.0	77	16.9	0	2	135	0.00	30.282 
15:10	23.0	23.0	23.0	77	16.9	0	2	135	0.00	30.282 
15:15	23.2	23.2	23.2	77	17.1	0	1	135	0.00	30.287 
15:20	23.0	23.0	23.0	77	16.9	1	2	135	0.00	30.287 
15:25	22.9	22.9	22.9	77	16.8	0	3	112	0.00	30.287 
15:30	22.7	22.7	22.7	77	16.6	1	3	112	0.00	30.286 
15:35	22.5	22.5	22.5	78	16.7	1	3	112	0.00	30.286 
15:40	22.5	22.5	22.5	78	16.7	1	3	112	0.00	30.286 
15:45	22.4	22.4	22.4	78	16.6	1	3	90	0.00	30.284 
15:50	22.4	22.4	22.4	78	16.6	1	4	90	0.00	30.284 
15:55	22.2	22.2	22.2	78	16.4	1	3	90	0.00	30.284 
16:00	22.2	22.2	22.2	78	16.4	1	3	90	0.00	30.286 
16:05	22.2	22.2	22.2	79	16.7	0	1	90	0.00	30.286 
16:10	22.1	22.1	22.1	78	16.3	1	3	90	0.00	30.286 
16:15	22.1	22.1	22.1	79	16.6	1	3	90	0.00	30.283 
16:20	21.9	21.9	21.9	79	16.4	1	3	90	0.00	30.283 
16:25	21.9	21.9	21.9	79	16.4	1	3	90	0.00	30.283 
16:30	21.8	21.8	21.8	79	16.3	1	4	90	0.00	30.274 
16:35	21.4	21.4	21.4	80	16.2	1	4	90	0.00	30.274 
16:40	21.4	21.4	21.4	80	16.2	1	3	90	0.00	30.274 
16:45	21.3	21.3	21.3	80	16.1	1	3	90	0.00	30.283 
16:50	21.1	21.1	21.1	81	16.2	1	2	90	0.00	30.283 
16:55	21.1	21.1	21.1	81	16.2	0	1	90	0.00	30.283 
17:00	21.0	21.0	21.0	81	16.1	0	2	90	0.00	30.293 
17:05	20.8	20.8	20.8	81	15.9	0	1	90	0.00	30.293 
17:10	20.6	20.6	20.6	81	15.7	1	3	90	0.00	30.293 
17:15	20.5	20.5	20.5	82	15.9	0	2	90	0.00	30.285 
17:20	20.3	20.3	20.3	82	15.7	0	2	90	0.00	30.285 
17:25	20.2	20.2	20.2	82	15.6	0	3	90	0.00	30.285 
17:30	20.0	20.0	20.0	82	15.4	1	4	90	0.00	30.278 
17:35	20.0	20.0	20.0	83	15.7	1	3	90	0.00	30.278 
17:40	19.9	19.9	19.9	83	15.6	0	2	90	0.00	30.278 
17:45	19.9	19.9	19.9	83	15.6	0	2	90	0.00	30.288 
17:50	19.7	19.7	19.7	83	15.4	0	2	90	0.00	30.288 
17:55	19.7	19.7	19.7	83	15.4	0	1	90	0.00	30.288 
18:00	19.7	19.7	19.7	84	15.7	0	1	90	0.00	30.285 
18:05	19.5	19.5	19.5	84	15.5	0	1	90	0.00	30.285 
18:10	19.5	19.5	19.5	84	15.5	0	1	90	0.00	30.285 
18:15	19.4	19.4	19.4	84	15.4	0	1	90	0.00	30.287 
18:20	19.4	19.4	19.4	84	15.4	0	1	90	0.00	30.287 
18:25	19.4	19.4	19.4	85	15.6	0	1	90	0.00	30.287 
18:30	19.4	19.4	19.4	85	15.6	0	2	90	0.00	30.289 
18:35	19.4	19.4	19.4	85	15.6	0	1	90	0.00	30.289 
18:40	19.4	19.4	19.4	85	15.6	0	0	---	0.00	30.289 
18:45	19.2	19.2	19.2	85	15.4	0	1	90	0.00	30.299 
18:50	19.2	19.2	19.2	85	15.4	0	0	---	0.00	30.299 
18:55	19.2	19.2	19.2	85	15.4	0	2	90	0.00	30.299 
19:00	19.2	19.2	19.2	85	15.4	0	1	90	0.00	30.285 
19:05	19.2	19.2	19.2	85	15.4	0	1	90	0.00	30.285 
19:10	19.4	19.4	19.4	85	15.6	0	0	---	0.00	30.285 
19:15	19.4	19.4	19.4	85	15.6	0	0	---	0.00	30.301 
19:20	19.4	19.4	19.4	85	15.6	0	1	90	0.00	30.301 
19:25	19.4	19.4	19.4	85	15.6	0	1	90	0.00	30.301 
19:30	19.4	19.4	19.4	85	15.6	0	0	---	0.00	30.296 
19:35	19.2	19.2	19.2	85	15.4	0	0	---	0.00	30.296 
19:40	19.2	19.2	19.2	85	15.4	0	1	90	0.00	30.296 
19:45	19.2	19.2	19.2	86	15.7	0	1	90	0.00	30.289 
19:50	19.1	19.1	19.1	86	15.6	0	0	---	0.00	30.289 
19:55	19.1	19.1	19.1	86	15.6	0	1	90	0.00	30.289 
20:00	19.1	19.1	19.1	86	15.6	0	1	90	0.00	30.291 
20:05	19.1	19.1	19.1	86	15.6	0	0	---	0.00	30.291 
20:10	19.1	19.1	19.1	86	15.6	0	0	---	0.00	30.291 
20:15	19.1	19.1	19.1	86	15.6	0	0	---	0.00	30.287 
20:20	19.1	19.1	19.1	86	15.6	0	0	---	0.00	30.287 
20:25	19.1	19.1	19.1	86	15.6	0	0	---	0.00	30.287 
20:30	18.9	18.9	18.9	86	15.4	0	0	---	0.00	30.286 
20:35	18.9	18.9	18.9	86	15.4	0	0	---	0.00	30.286 
20:40	18.9	18.9	18.9	87	15.7	0	0	---	0.00	30.286 
20:45	18.9	18.9	18.9	86	15.4	0	0	---	0.00	30.280 
20:50	18.9	18.9	18.9	87	15.7	0	1	90	0.00	30.280 
20:55	18.9	18.9	18.9	87	15.7	0	1	90	0.00	30.280 
21:00	18.9	18.9	18.9	87	15.7	0	0	---	0.00	30.290 
21:05	18.9	18.9	18.9	87	15.7	0	1	90	0.00	30.290 
21:10	18.9	18.9	18.9	87	15.7	0	0	---	0.00	30.290 
21:15	18.9	18.9	18.9	87	15.7	0	1	90	0.00	30.271 
21:20	19.1	19.1	19.1	87	15.9	0	1	90	0.00	30.271 
21:25	19.2	19.2	19.2	87	16.0	0	2	90	0.00	30.271 
21:30	19.2	19.2	19.2	87	16.0	0	1	90	0.00	30.269 
21:35	19.2	19.2	19.2	87	16.0	0	1	90	0.00	30.269 
21:40	19.2	19.2	19.2	87	16.0	0	2	90	0.00	30.269 
21:45	19.2	19.2	19.2	87	16.0	0	1	90	0.00	30.261 
21:50	19.2	19.2	19.2	87	16.0	1	3	90	0.00	30.261 
21:55	19.4	19.4	19.4	87	16.2	0	1	90	0.00	30.261 
22:00	19.4	19.4	19.4	87	16.2	1	4	90	0.00	30.235 
22:05	19.2	19.2	19.2	87	16.0	1	3	90	0.00	30.235 
22:10	19.4	19.4	19.4	88	16.4	0	1	90	0.00	30.235 
22:15	19.4	19.4	19.4	88	16.4	1	3	90	0.00	30.237 
22:20	19.5	19.5	19.5	88	16.5	1	4	90	0.00	30.237 
22:25	19.5	19.5	19.5	88	16.5	1	3	90	0.00	30.237 
22:30	19.7	19.7	19.7	88	16.7	1	3	90	0.00	30.226 
22:35	19.7	19.7	19.7	88	16.7	0	2	90	0.00	30.224 
22:40	19.9	19.9	19.9	88	16.9	1	5	90	0.00	30.230 
22:45	19.9	19.9	19.9	88	16.9	1	4	90	0.00	30.234 
22:50	19.9	19.9	19.9	88	16.9	1	3	90	0.00	30.225 
22:55	20.0	20.0	20.0	88	17.0	1	3	90	0.00	30.222 
23:00	20.0	20.0	20.0	88	17.0	0	1	90	0.00	30.221 
23:05	20.2	20.2	20.2	88	17.2	0	2	90	0.00	30.226 
23:10	20.2	20.2	20.2	88	17.2	0	2	90	0.00	30.232 
23:15	20.3	20.3	20.3	88	17.3	1	3	90	0.00	30.220 
23:20	20.3	20.3	20.3	88	17.3	1	4	90	0.00	30.220 
23:25	20.3	20.3	20.3	89	17.6	0	3	90	0.00	30.225 
23:30	20.3	20.3	20.3	89	17.6	1	3	90	0.00	30.221 
23:35	20.5	20.5	20.5	89	17.8	0	1	90	0.00	30.218 
23:40	20.5	20.5	20.5	89	17.8	1	4	90	0.00	30.216 
23:45	20.5	20.5	20.5	90	18.0	1	4	112	0.00	30.216 
23:50	20.5	20.5	20.5	90	18.0	1	4	90	0.00	30.204 
23:55	20.5	20.5	20.5	90	18.0	2	6	90	0.00	30.200 

CoCoRaHS
IN-AL-39
A2 Web Hosting
Creative Commons License
GoDaddy
search engine by freefind advanced

loaded 2018-11-17 12:14:43 • last modified 2010-11-18 10:43:29
Privacy PolicyDisclaimer
• wx.awcolley.com is powered by PmWiki v.2002016 •
• all content (unless otherwise noted) © 2018 A W Colley